Вернуться в каталог

YAOGAN 7 DEB

АктивенВоенныеPO
NORAD 38265·DEBRIS·🇨🇳 China

Запущен Dec 9, 2009 с Jiuquan Satellite Launch Center

Loading…

Ближайшие Пролёты (ближайшие 24 часа)

TLE

СвежийSource: Space-Track

Эпоха: Sep 11, 2026, 15:55 UTC

1 38265U 09069B   26254.66353835  .00001443  00000-0  42010-3 0  9998
2 38265  97.8219 148.9767 0208732  14.5426 346.1643 14.33661300864572

Отслеживайте YAOGAN 7 DEB в реальном времени с AllMySat

Download on the App Store